OBJECT B, 69098

Orbit data source: Space-Track

You're viewing an Uncataloged Satellite

Recently launched and/or uncataloged satellites may have evolving metadata. Metadata may include but not limited to: Owner, Maufacturer, Bus, Motor, and Mission.

OBJECT B, 69098 is a Chinese satellite in SSO that was launched on Fri, 15 May 2026 UTC via a LIJIAN-1 launch vehicle from the Jiuquan Satellite Launch Center, China (JSC). Unknown objects in Earth's orbit typically refer to objects detected orbiting the Earth but have not yet been identified or cataloged. These objects could be anything from previously untracked satellites, spent rocket stages, debris from satellite collisions, or even natural meteoroids temporarily captured by Earth's gravity.

Loading next visibility...
Identifier
69098, 2026-106B
Orbit
SSO
Country
Flag of CNCN / PRC
Related business
None
Manufacturer
Unknown
Mission
Operational spacecraft
Bus & Motor
Unknown
Mass
Unknown
Launch date (UTC)
2026-05-15 (1 month ago)
Launch vehicle
LIJIAN-1
Launch site
Jiuquan Satellite Launch Center, China (JSC)
Object type
Unknown
Shape & HBR
Unknown shape, 1.1 m
Radar Cross Section
Medium (>0.1 m² and <1 m²)

Expand to show TLE details & history
Last TLE update: 1 day ago

TLE from 1 day ago
0 OBJECT B
1 69098U 26106B   26168.03175371  .00003893  00000-0  24500-3 0  9994
2 69098  97.5082 250.0714 0015406 157.6224 202.5681 15.09679339  4951
Epoch: 2026-06-17T00:45Z
TLE epoch observation values (Epoch: 2026-06-17T00:45:43.520Z)
Latitude
0.00002°
Longitude
-26.6552°
Altitude
550.095 km
Speed
7.581 km/s
True Right ascension
16h 40m 17s
True Declination
0° 00' 00"
Sunlit
Object was in full shadow at epoch
Visualization orbit readout
Latitude
Unknown
Longitude
Unknown
Altitude
Unknown
Speed
Unknown
Apparent Right ascension
Unknown
Apparent Declination
Unknown
Sunlit
N/A
Visualization observer readout
Local Sidereal Time
13:15:13
Azimuth
Unknown
Elevation
Unknown
Doppler factor
Unknown
Orbital elements
Apogee altitude
544.812 km
Perigee altitude
523.514 km
Semi-major axis
6,912.3 km
Eccentricity
0.00154
Inclination
97.5082°
RAAN
250.0714°
Arg. of periapsis
157.6224°
True anomaly
202.50047°
Mean anomaly
202.5681°
Eccentric anomaly
202.53427°
Mean motion
3.77667 °/min
Orbital period
95.32 mins
BSTAR
0.000245
Loading maneuver chart data...
Computing Atmospheric mass density...
Loading historical data...
Loading historical data...
Loading historical data...
Loading historical data...
Loading historical data...
Loading historical data...
Loading historical data...
Other satellites on launch #106 in the year 2026 (2026-05-15 UTC)

Documentation

Showing up to 5 results
|